[[{"header":{"parameterUnit":"m.s-1","parameterCategory":1,"la1":30.2991,"la2":30.254,"lo1":-89.0895,"lo2":-89.0444,"dy":0.0017,"dx":0.0017,"nx":28,"ny":28,"refTime":"2024-06-03T21:00:00:Z","depth":0,"parameterNumber":2,"parameterNumberName":"U-component_of_WINDS"},"data":[0,0,0,0,0,0,0,0,0,0,0,0,0,0,0,0,0,0,0,0,0,0,0,0,0,0,0,0,0,0,0,0,0,0,0,0,0,0,0,0,0,0,0,0,0,0,0,0,0,0,0,0,0,0,0,0,0,0,0.2099,0.2099,0,0.2102,0.2102,0.2102,0.2079,0.2079,0.2078,0.2077,0.208,0.208,0.2081,0,0,0,0,0,0,0,0,0,0,0,0,0,0.2074,0.2074,0.2099,0.2099,0.2099,0.2102,0.2102,0.2102,0.2079,0.2079,0.2078,0.2077,0.2079,0.208,0.2081,0,0,0,0,0,0,0,0,0,0,0,0,0,0.2081,0.2075,0.2099,0.2088,0.2088,0.2102,0.2102,0.2102,0.2079,0.2078,0.2078,0.2077,0.2079,0.208,0.2081,0.2106,0,0,0.2084,0.2084,0,0,0,0,0,0,0,0,0.2081,0.2082,0.209,0.2089,0.2088,0.2089,0.2094,0.2103,0.208,0.2083,0.2077,0.2076,0.2084,0.2084,0.2087,0.2106,0.2106,0.2084,0.2085,0.2085,0.2085,0,0,0,0,0,0,0,0.2081,0.2082,0.21,0.209,0.2089,0.2083,0.2083,0.2095,0.2088,0.2082,0.2081,0.2081,0.2083,0.2086,0.2087,0.2106,0.2084,0.2085,0.2086,0.2086,0.2144,0.2145,0,0,0,0,0,0,0.2082,0.2082,0.21,0.21,0.2082,0.2084,0.2084,0.209,0.2088,0.2087,0.2082,0.208,0.2085,0.2085,0.2087,0.2114,0.2085,0.2086,0.2087,0.2143,0.2144,0.2145,0,0,0,0,0,0,0.2081,0.2083,0.21,0.2091,0.2092,0.2086,0.2092,0.209,0.2093,0.2088,0.2086,0.2086,0.2084,0.2085,0.2101,0.2114,0.2086,0.2087,0.2142,0.2143,0.2145,0.2171,0,0,0,0,0,0,0.2081,0.2083,0.2093,0.2091,0.2093,0.2115,0.2093,0.2091,0.2095,0.2093,0.2092,0.2091,0.2083,0.2099,0.2102,0.2115,0.2088,0.2141,0.2143,0.2144,0.2169,0.2173,0.2177,0,0,0,0,0,0.208,0.2101,0.2094,0.2096,0.2105,0.2116,0.2117,0.2108,0.2096,0.2106,0.2102,0.2091,0.2112,0.2101,0.2104,0.2118,0.214,0.2142,0.2144,0.2167,0.2173,0.2177,0,0,0,0,0,0,0.2106,0.2101,0.2093,0.2114,0.2116,0.2112,0.2124,0.2114,0.2119,0.2117,0.2105,0.2105,0.2123,0.2121,0.2109,0.214,0.2124,0.2127,0.2141,0.2146,0.2149,0.215,0.2089,0,0,0,0,0,0.2114,0.2123,0.2118,0.2137,0.2138,0.2131,0.2135,0.2128,0.2129,0.213,0.2127,0.2129,0.2135,0.214,0.2147,0.2169,0.2167,0.2179,0.2183,0.2186,0.2189,0.2199,0.2204,0.2152,0.2152,0.2152,0,0,0.2131,0.2129,0.2136,0.2142,0.2143,0.2152,0.2132,0.2143,0.215,0.2132,0.2146,0.2144,0.2145,0.2163,0.2171,0.2163,0.2203,0.2189,0.2192,0.2192,0.2202,0.2207,0.2211,0.2154,0.2154,0.2153,0,0,0.2167,0.2167,0.2182,0.2182,0.2183,0.2177,0.2181,0.2179,0.2177,0.2191,0.2177,0.2184,0.2197,0.2197,0.2199,0.2233,0.2222,0.2235,0.2256,0.2266,0.227,0.2274,0.2285,0.229,0.2238,0.2238,0.2238,0,0.2188,0.2202,0.2191,0.2203,0.2206,0.2189,0.2204,0.2205,0.2207,0.2209,0.22,0.2214,0.2213,0.2231,0.2239,0.2241,0.2245,0.2236,0.2271,0.2274,0.2277,0.2288,0.2292,0.2239,0.2239,0.2239,0.2239,0,0.2227,0.2237,0.2249,0.2252,0.2256,0.2269,0.226,0.2265,0.2257,0.2252,0.2266,0.2264,0.2269,0.2273,0.2266,0.2289,0.2284,0.2273,0.2256,0.2284,0.2294,0.2298,0.2242,0.2241,0.2241,0.224,0,0,0.2281,0.2276,0.2281,0.2281,0.2279,0.2286,0.2298,0.2302,0.2307,0.2308,0.2317,0.2327,0.2317,0.2319,0.2311,0.232,0.2346,0.2307,0.2307,0.2314,0.2371,0.2379,0.2384,0.2338,0.2339,0.234,0.237,0,0.2316,0.2336,0.2326,0.2347,0.2355,0.2338,0.2348,0.2348,0.2344,0.2349,0.2344,0.2351,0.2337,0.2338,0.2346,0.2341,0.2357,0.2338,0.2346,0.2347,0.2347,0.2389,0.2399,0.2428,0.2374,0.2375,0.2375,0,0.2359,0.2362,0.2384,0.2379,0.2382,0.2391,0.2394,0.2399,0.2398,0.2394,0.2396,0.2385,0.2396,0.2379,0.2392,0.238,0.2382,0.238,0.2381,0.2382,0.2363,0.2391,0.2437,0.2441,0.2381,0.2381,0.238,0,0.2395,0.2404,0.2418,0.2419,0.2414,0.2421,0.2419,0.2416,0.2419,0.2421,0.2423,0.2426,0.2428,0.243,0.242,0.2409,0.2435,0.2417,0.2432,0.2432,0.2438,0.2438,0.2486,0.244,0.244,0.244,0.244,0,0.2435,0.2449,0.2434,0.2443,0.2457,0.2445,0.246,0.2456,0.2454,0.2461,0.2447,0.2453,0.244,0.2446,0.2438,0.245,0.2451,0.2448,0.2446,0.2449,0.245,0.2451,0.2448,0.2441,0.2441,0.244,0.244,0,0.2478,0.2469,0.2483,0.2476,0.2475,0.2486,0.248,0.2487,0.2481,0.249,0.2492,0.2482,0.2487,0.2478,0.2482,0.2477,0.2494,0.2488,0.2494,0.2493,0.2507,0.2506,0.2557,0.2563,0.2514,0.2514,0.2515,0,0.2504,0.2514,0.2508,0.2512,0.251,0.2516,0.2519,0.2507,0.251,0.2508,0.2515,0.2519,0.2522,0.2531,0.2524,0.2527,0.2522,0.2539,0.2522,0.2525,0.2521,0.2521,0.2521,0.2543,0.2544,0.2544,0.2544,0,0.255,0.2545,0.2549,0.2551,0.2554,0.2555,0.2555,0.2559,0.2546,0.255,0.2555,0.2557,0.256,0.2564,0.2565,0.2563,0.2551,0.255,0.2553,0.2557,0.256,0.2558,0.2504,0.2549,0.2548,0.2548,0.2548,0.2548,0.2585,0.2593,0.259,0.2594,0.2593,0.2593,0.2599,0.2593,0.2597,0.2599,0.2591,0.2598,0.2594,0.2594,0.2593,0.2598,0.259,0.2595,0.2596,0.2597,0.26,0.2559,0.2598,0.2598,0.2598,0.2597,0.2597,0,0.2631,0.2627,0.2631,0.2631,0.2635,0.2623,0.2622,0.2625,0.2631,0.2629,0.2632,0.2637,0.264,0.2633,0.2635,0.264,0.2635,0.2641,0.2641,0.264,0.2607,0.2604,0.2645,0.2645,0.2645,0.2645,0.2645,0.2645,0.2655,0.2667,0.2661,0.2671,0.2668,0.2674,0.2674,0.2673,0.2672,0.2678,0.268,0.2676,0.2671,0.2673,0.2675,0.2672,0.2674,0.2682,0.2678,0.2647,0.2642,0.2638,0.2635,0.2682,0.2682,0.271,0.2711,0.2711]},{"header":{"parameterUnit":"m.s-1","parameterCategory":1,"la1":30.2991,"la2":30.254,"lo1":-89.0895,"lo2":-89.0444,"dy":0.0017,"dx":0.0017,"nx":28,"ny":28,"refTime":"2024-06-03T21:00:00:Z","depth":0,"parameterNumber":3,"parameterNumberName":"V-component_of_WINDS"},"data":[0,0,0,0,0,0,0,0,0,0,0,0,0,0,0,0,0,0,0,0,0,0,0,0,0,0,0,0,0,0,0,0,0,0,0,0,0,0,0,0,0,0,0,0,0,0,0,0,0,0,0,0,0,0,0,0,0,0,4.0867,4.0865,0,4.0728,4.0727,4.0725,4.0661,4.0661,4.0661,4.0662,4.0513,4.0509,4.0504,0,0,0,0,0,0,0,0,0,0,0,0,0,4.107,4.1067,4.0867,4.0865,4.0864,4.0729,4.0727,4.0725,4.0661,4.0661,4.0662,4.0662,4.0514,4.0509,4.0504,0,0,0,0,0,0,0,0,0,0,0,0,0,4.0962,4.1066,4.0867,4.0816,4.081,4.0729,4.0727,4.0724,4.0661,4.0661,4.0662,4.0662,4.0515,4.0509,4.0503,4.0461,0,0,4.0485,4.0482,0,0,0,0,0,0,0,0,4.0968,4.0954,4.0825,4.0819,4.0812,4.0712,4.0743,4.0636,4.0661,4.0717,4.0662,4.0662,4.0578,4.0567,4.054,4.0454,4.0448,4.0484,4.048,4.0478,4.0476,0,0,0,0,0,0,0,4.0975,4.096,4.0812,4.0823,4.0815,4.0797,4.0782,4.0723,4.0648,4.0712,4.0708,4.0692,4.0575,4.0546,4.0536,4.0446,4.0484,4.0479,4.0475,4.0473,4.0317,4.0317,0,0,0,0,0,0,4.0992,4.0966,4.0816,4.0808,4.0892,4.0794,4.0777,4.0744,4.0649,4.0634,4.0692,4.069,4.0557,4.0544,4.0531,4.0475,4.0478,4.0472,4.0468,4.0318,4.0317,4.0317,0,0,0,0,0,0,4.0997,4.098,4.0822,4.0886,4.0864,4.079,4.0754,4.0741,4.0713,4.0634,4.0619,4.0678,4.0556,4.054,4.0479,4.0469,4.0469,4.0464,4.0318,4.0318,4.0317,4.0363,0,0,0,0,0,0,4.1003,4.0982,4.0966,4.0886,4.0861,4.0775,4.0753,4.0738,4.0703,4.0699,4.0616,4.0602,4.0555,4.0489,4.0473,4.046,4.0459,4.0319,4.0318,4.0317,4.0362,4.0364,4.0366,0,0,0,0,0,4.1011,4.0983,4.0966,4.0948,4.0841,4.0775,4.076,4.0709,4.0703,4.0686,4.0635,4.0605,4.0473,4.0483,4.0465,4.045,4.0319,4.0318,4.0317,4.0362,4.0364,4.0366,0,0,0,0,0,0,4.1062,4.0972,4.0952,4.0898,4.0845,4.0764,4.0741,4.0713,4.0658,4.0656,4.0593,4.0574,4.052,4.0479,4.0492,4.0404,4.0393,4.0389,4.0433,4.0435,4.0437,4.0447,4.0454,0,0,0,0,0,4.1067,4.1023,4.0946,4.0906,4.0881,4.0816,4.0785,4.075,4.0691,4.0668,4.0612,4.0554,4.05,4.0465,4.041,4.0356,4.0337,4.0337,4.0339,4.0341,4.0337,4.0305,4.0304,4.0314,4.0314,4.0314,0,0,4.1077,4.1023,4.0998,4.0915,4.087,4.0823,4.0797,4.0749,4.0713,4.0659,4.06,4.0557,4.0488,4.0432,4.0403,4.0396,4.0331,4.034,4.0342,4.0337,4.0304,4.0303,4.0303,4.0313,4.0313,4.0313,0,0,4.1072,4.1027,4.0989,4.0945,4.0877,4.0834,4.0825,4.0749,4.0719,4.0659,4.0618,4.0573,4.0481,4.0434,4.0397,4.0375,4.0345,4.0359,4.0368,4.0338,4.0337,4.0336,4.0327,4.0325,4.0356,4.0356,4.0356,0,4.1092,4.1023,4.0972,4.0927,4.0891,4.0843,4.0803,4.0761,4.0679,4.0654,4.0647,4.0531,4.0481,4.0412,4.0407,4.0379,4.0365,4.0368,4.0342,4.034,4.0338,4.0329,4.0327,4.0358,4.0358,4.0358,4.0357,0,4.1051,4.1004,4.0981,4.0905,4.0867,4.0824,4.0765,4.0731,4.07,4.0658,4.0596,4.0535,4.0467,4.0448,4.0416,4.0375,4.0372,4.0354,4.0342,4.0341,4.0331,4.0327,4.0361,4.036,4.036,4.0359,0,0,4.1073,4.0971,4.0964,4.0929,4.0851,4.0812,4.0767,4.0703,4.0676,4.062,4.0579,4.0503,4.0486,4.0445,4.0408,4.0381,4.0367,4.0366,4.0363,4.0368,4.0316,4.033,4.0327,4.0347,4.0346,4.0346,4.0322,0,4.1057,4.0977,4.093,4.0867,4.0822,4.0777,4.0737,4.0684,4.0643,4.0597,4.055,4.0497,4.0479,4.0454,4.0426,4.0375,4.0356,4.0376,4.0307,4.0305,4.0325,4.0322,4.0336,4.0317,4.0318,4.0317,4.0317,0,4.1027,4.0976,4.091,4.0838,4.0817,4.0783,4.0721,4.0678,4.0616,4.0588,4.0544,4.0506,4.0454,4.0447,4.0374,4.0389,4.0358,4.0329,4.0326,4.0317,4.0311,4.0312,4.0309,4.0307,4.0311,4.0311,4.0312,0,4.1049,4.0963,4.0913,4.0884,4.0799,4.0776,4.0739,4.0678,4.0643,4.0588,4.0564,4.0503,4.0469,4.0421,4.0368,4.0368,4.03,4.0288,4.0274,4.0275,4.0261,4.0262,4.0253,4.0242,4.0242,4.0242,4.0242,0,4.1036,4.0997,4.0922,4.0891,4.0846,4.0792,4.0748,4.0706,4.0653,4.0611,4.0567,4.0528,4.0461,4.0413,4.0371,4.0316,4.0301,4.0276,4.0265,4.0279,4.0283,4.0257,4.0257,4.0241,4.0242,4.0242,4.0242,0,4.1053,4.1001,4.0943,4.0869,4.0849,4.0819,4.0753,4.072,4.0678,4.0626,4.061,4.0542,4.0484,4.0426,4.0347,4.0319,4.0265,4.0251,4.0287,4.0281,4.0269,4.0271,4.0242,4.0235,4.0231,4.0231,4.0231,0,4.1047,4.1017,4.094,4.091,4.0875,4.0828,4.0792,4.0737,4.0702,4.063,4.0605,4.0544,4.0493,4.0402,4.0344,4.0283,4.0266,4.0261,4.0257,4.0273,4.0265,4.0268,4.0264,4.0262,4.0262,4.0263,4.0263,0,4.1043,4.1019,4.0971,4.0915,4.0874,4.0826,4.0776,4.0754,4.0688,4.065,4.0592,4.0552,4.0473,4.0413,4.0346,4.0305,4.0272,4.0265,4.0258,4.0272,4.0295,4.0282,4.0291,4.0266,4.0265,4.0265,4.0265,4.0265,4.1048,4.1019,4.0961,4.0908,4.0866,4.082,4.0786,4.074,4.0691,4.0624,4.0594,4.0535,4.0473,4.038,4.034,4.0292,4.0283,4.0273,4.0271,4.0269,4.0272,4.0304,4.0279,4.0279,4.0279,4.0279,4.0278,0,4.1041,4.1001,4.0954,4.0887,4.0846,4.0822,4.0766,4.0732,4.0682,4.0628,4.0579,4.0512,4.0453,4.0392,4.0329,4.0302,4.0285,4.0287,4.0288,4.0279,4.0284,4.0296,4.0302,4.0302,4.0302,4.0302,4.0302,4.0302,4.1032,4.0982,4.0952,4.0879,4.0839,4.0783,4.0753,4.071,4.0667,4.0595,4.0547,4.0508,4.0451,4.0384,4.0329,4.0312,4.029,4.0296,4.0275,4.028,4.0279,4.0277,4.0288,4.0292,4.0292,4.0274,4.0274,4.0274]}]]